Morristown, NJ

11:39 PM EDT on May 27, 2018 (GMT -0400)
Morristown Municipal

Weather History for KMMU - May, 2014

Change the Weather History Date:

Wednesday, May 7, 2014

  Actual Average Record
Temperature  
Mean Temperature 64 °F -  
Max Temperature 86 °F 69 °F 93 °F (2000)
Min Temperature 41 °F 43 °F 28 °F (1954)
Degree Days  
Heating Degree Days 2    
Growing Degree Days 14 (Base 50)    
Moisture  
Dew Point 35 °F    
Average Humidity 53    
Maximum Humidity 87    
Minimum Humidity 15    
Precipitation  
Precipitation 0.00 in - - ()
Sea Level Pressure  
Sea Level Pressure 30.17 in    
Wind  
Wind Speed 3 mph (SW)    
Max Wind Speed 12 mph    
Max Gust Speed 20 mph    
Visibility 11 miles    
Events      
Averages and records for this station are not official NWS values.
T = Trace of Precipitation, MM = Missing Value Source: NWS Daily Summary

Daily Weather History Graph

Daily Weather History Graph

Search for Another Location

Airport or City:

Astronomy

May. 07, 2014 Rise Set
Actual Time 5:48 AM EDT 8:00 PM EDT
Civil Twilight 5:18 AM EDT 8:30 PM EDT
Nautical Twilight 4:41 AM EDT 9:08 PM EDT
Astronomical Twilight 4:00 AM EDT 9:49 PM EDT
Moon 1:00 PM EDT (5/7) 1:49 AM EDT (5/7)
Length of Visible Light 15h 12m
Length of Day
14h 11m
First Quarter, 55% of the Moon is Illuminated
May 7
First Quarter
May 14
Full
May 21
Last Quarter
May 28
New
Jun 5
First Quarter

Hourly Weather History & Observations

Time (EDT) Temp. Dew Point Humidity Pressure Visibility Wind Dir Wind Speed Gust Speed Precip Events Conditions
12:15 AM 57.2 °F 28.4 °F 33% 30.09 in 10.0 mi North 6.9 mph - N/A   Clear
12:35 AM 55.4 °F 28.4 °F 36% 30.10 in 10.0 mi NNW 6.9 mph - N/A   Clear
12:55 AM 53.6 °F 28.4 °F 38% 30.10 in 10.0 mi North 4.6 mph - N/A   Clear
1:15 AM 53.6 °F 28.4 °F 38% 30.10 in 10.0 mi North 4.6 mph - N/A   Clear
1:35 AM 51.8 °F 33.8 °F 50% 30.11 in 10.0 mi Calm Calm - N/A   Clear
1:55 AM 48.2 °F 32.0 °F 54% 30.11 in 10.0 mi WNW 3.5 mph - N/A   Clear
2:15 AM 48.2 °F 39.2 °F 71% 30.12 in 10.0 mi Calm Calm - N/A   Clear
2:35 AM 44.6 °F 35.6 °F 71% 30.12 in 10.0 mi Calm Calm - N/A   Clear
2:55 AM 46.4 °F 37.4 °F 71% 30.13 in 10.0 mi Calm Calm - N/A   Clear
3:15 AM 46.4 °F 37.4 °F 71% 30.14 in 10.0 mi Calm Calm - N/A   Clear
3:35 AM 44.6 °F 37.4 °F 76% 30.15 in 10.0 mi Calm Calm - N/A   Clear
3:55 AM 42.8 °F 33.8 °F 70% 30.15 in 10.0 mi Calm Calm - N/A   Clear
4:15 AM 42.8 °F 37.4 °F 81% 30.15 in 10.0 mi Calm Calm - N/A   Clear
4:35 AM 42.8 °F 35.6 °F 76% 30.16 in 10.0 mi Calm Calm - N/A   Clear
4:55 AM 42.8 °F 35.6 °F 76% 30.16 in 10.0 mi Calm Calm - N/A   Clear
5:15 AM 41.0 °F 33.8 °F 76% 30.17 in 10.0 mi Calm Calm - N/A   Clear
5:35 AM 41.0 °F 35.6 °F 81% 30.17 in 10.0 mi Calm Calm - N/A   Clear
5:55 AM 41.0 °F 37.4 °F 87% 30.18 in 10.0 mi Calm Calm - N/A   Clear
6:15 AM 42.8 °F 37.4 °F 81% 30.18 in 10.0 mi Calm Calm - N/A   Clear
6:35 AM 44.6 °F 41.0 °F 87% 30.18 in 10.0 mi Calm Calm - N/A   Clear
6:45 AM 41.0 °F 35.6 °F 81% 30.19 in 15.0 mi Calm Calm - N/A   Clear
7:45 AM 51.8 °F 35.6 °F 54% 30.20 in 15.0 mi Calm Calm - N/A   Clear
8:45 AM 55.4 °F 33.8 °F 44% 30.24 in 20.0 mi NE 3.5 mph - N/A   Overcast
9:45 AM 57.2 °F 30.2 °F 36% 30.24 in 10.0 mi Calm Calm - N/A   Scattered Clouds
10:45 AM 60.8 °F 30.2 °F 31% 30.25 in 20.0 mi Calm Calm - N/A   Overcast
11:45 AM 62.6 °F 32.0 °F 32% 30.23 in 10.0 mi SE 4.6 mph - N/A   Scattered Clouds
12:45 PM 64.4 °F 32.0 °F 30% 30.22 in 15.0 mi SW 9.2 mph - N/A   Mostly Cloudy
2:45 PM 68.0 °F 30.2 °F 24% 30.18 in 15.0 mi SSW 9.2 mph - N/A   Overcast
3:45 PM 68.0 °F 32.0 °F 26% 30.16 in 10.0 mi SW 11.5 mph - N/A   Mostly Cloudy
4:45 PM 86.0 °F 33.8 °F 15% 30.15 in 10.0 mi South 8.1 mph - N/A   Mostly Cloudy
5:45 PM 68.0 °F 33.8 °F 28% 30.16 in 10.0 mi West 11.5 mph 19.6 mph N/A   Mostly Cloudy
6:45 PM 66.2 °F 33.8 °F 30% 30.16 in 10.0 mi WSW 10.4 mph 16.1 mph N/A   Overcast
7:45 PM 60.8 °F 35.6 °F 39% 30.17 in 10.0 mi South 6.9 mph - N/A   Overcast
8:45 PM 60.8 °F 39.2 °F 45% 30.19 in 10.0 mi South 6.9 mph - N/A   Overcast
10:15 PM 60.8 °F 39.2 °F 45% 30.19 in 10.0 mi Calm Calm - N/A   Scattered Clouds
10:35 PM 60.8 °F 41.0 °F 48% 30.19 in 10.0 mi South 3.5 mph - N/A   Mostly Cloudy
10:55 PM 60.8 °F 39.2 °F 45% 30.18 in 10.0 mi SW 3.5 mph - N/A   Overcast
11:15 PM 60.8 °F 39.2 °F 45% 30.18 in 10.0 mi SW 5.8 mph - N/A   Mostly Cloudy
11:35 PM 59.0 °F 41.0 °F 51% 30.19 in 10.0 mi South 3.5 mph - N/A   Mostly Cloudy
11:55 PM 59.0 °F 41.0 °F 51% 30.19 in 10.0 mi Calm Calm - N/A   Overcast